Flight Information

DEPARTURE
LANCASTER, CA
Elevation:
2350
Runways:
6/24 - 7201x150 - ASPH-G
ATIS:
126.3
Ground:
121.7
Tower:
FOX TOWER 118.525
DESTINATION
,
Elevation:
TPA:
1000 (est.)


6771.6 NM73° True-14° Var59° HDG

Flight Plan:
(click to file on line)

1. Type
2. Aircraft Identification
3. Aircraft Type / Special Equipment
4. True Airspeed
kts
5. Departure Airport
(ICAO code)
6. Arriving Airport
(ICAO code)
7. Cruising Altitude
ft
8. Alternate Airport
(ICAO code)
9. Route of Flight
10. Remarks


00:00:00 Departure ATIS: Destination ATIS:

Clearance Limit:
Route:
Altitude: Expect in minutes
Frequency:
Transponder: (7500 Hijack / 7600 Lost Comms / 7700 Emergency)


KWJF 051456Z 28014KT 10SM CLR 27/03 A3001 RMK AO2 SLP140 T02720028 51007
Time: 2020-07-05T14:56:00Z
1593963693
Winds: 280 @ 14 kts
Visibility: 10.0 sm
Clouds (AGL): CLR
Temperature: 27.2 C
Dew Point: 2.8 C
Pressure: 30.008858 in Hgbr


Notes:

Data extracted from FAA Digital Chart Supplement. Effective: 0901Z Thursday, May 21, 2020 to 0901Z Thursday, Jul 16, 2020
Current ATIS data is provided courtisy of PilotEdge.